| time (UTC) | temp F | wind direction | speed MPH | gust MPH | rain 1hr in | rain 24hr in | rain mn in | humidity % | barometer mb |
| 20260510154630 | 62 | 294 | 6.0 | 8.0 | 0.00 | 0.00 | 0.00 | 81 | 1016.7 |
| 20260510154126 | 62 | 314 | 9.0 | 9.0 | 0.00 | 0.00 | 0.00 | 80 | 1016.6 |
| 20260510153621 | 62 | 74 | 7.0 | 9.0 | 0.00 | 0.00 | 0.00 | 79 | 1016.5 |
| 20260510153118 | 63 | 338 | 11.0 | 14.0 | 0.00 | 0.00 | 0.00 | 78 | 1016.3 |
| 20260510152615 | 64 | 355 | 7.0 | 8.0 | 0.00 | 0.00 | 0.00 | 77 | 1016.4 |
| 20260510152111 | 64 | 287 | 6.0 | 9.0 | 0.00 | 0.00 | 0.00 | 76 | 1016.3 |
| 20260510151607 | 64 | 337 | 7.0 | 8.0 | 0.00 | 0.00 | 0.00 | 76 | 1015.9 |
| 20260510151106 | 64 | 257 | 4.0 | 5.0 | 0.00 | 0.00 | 0.00 | 76 | 1016.0 |
| 20260510150600 | 63 | 5 | 8.0 | 10.0 | 0.00 | 0.00 | 0.00 | 78 | 1015.9 |
| 20260510150056 | 63 | 265 | 4.0 | 6.0 | 0.00 | 0.00 | 0.00 | 79 | 1016.1 |
| 20260510145553 | 62 | 268 | 4.0 | 6.0 | 0.00 | 0.00 | 0.00 | 83 | 1016.2 |
| 20260510145049 | 62 | 351 | 7.0 | 8.0 | 0.00 | 0.00 | 0.00 | 82 | 1015.7 |
| 20260510144546 | 62 | 8 | 7.0 | 9.0 | 0.00 | 0.00 | 0.00 | 81 | 1015.5 |
| 20260510144042 | 63 | 357 | 5.0 | 7.0 | 0.00 | 0.00 | 0.00 | 79 | 1015.9 |
| 20260510143537 | 62 | 279 | 4.0 | 5.0 | 0.00 | 0.00 | 0.00 | 80 | 1016.0 |
| 20260510143034 | 62 | 325 | 7.0 | 8.0 | 0.00 | 0.00 | 0.00 | 80 | 1015.9 |
| 20260510142531 | 62 | 1 | 2.0 | 2.0 | 0.00 | 0.00 | 0.00 | 80 | 1015.7 |
| 20260510142027 | 62 | 3 | 5.0 | 8.0 | 0.00 | 0.00 | 0.00 | 80 | 1016.0 |
| 20260510141524 | 63 | 15 | 7.0 | 8.0 | 0.00 | 0.00 | 0.00 | 79 | 1015.6 |
| 20260510141022 | 62 | 261 | 3.0 | 5.0 | 0.00 | 0.00 | 0.00 | 81 | 1016.0 |
| 20260510140517 | 62 | 248 | 2.0 | 2.0 | 0.00 | 0.00 | 0.00 | 82 | 1015.5 |
| 20260510140012 | 62 | 272 | 3.0 | 5.0 | 0.00 | 0.00 | 0.00 | 81 | 1015.7 |
| 20260510135508 | 61 | 264 | 4.0 | 6.0 | 0.00 | 0.00 | 0.00 | 81 | 1015.6 |
| 20260510135004 | 62 | 239 | 3.0 | 3.0 | 0.00 | 0.00 | 0.00 | 82 | 1015.7 |
| 20260510134502 | 62 | 258 | 3.0 | 3.0 | 0.00 | 0.00 | 0.00 | 81 | 1015.6 |
| 20260510133958 | 62 | 277 | 5.0 | 6.0 | 0.00 | 0.00 | 0.00 | 82 | 1015.5 |
| 20260510133454 | 62 | 279 | 3.0 | 5.0 | 0.00 | 0.00 | 0.00 | 82 | 1015.3 |
| 20260510132950 | 62 | 277 | 5.0 | 7.0 | 0.00 | 0.00 | 0.00 | 83 | 1015.2 |
| 20260510132447 | 61 | 253 | 2.0 | 2.0 | 0.00 | 0.00 | 0.00 | 83 | 1015.2 |
| 20260510131944 | 60 | 262 | 4.0 | 5.0 | 0.00 | 0.00 | 0.00 | 83 | 1015.3 |
| 20260510131442 | 61 | 302 | 5.0 | 7.0 | 0.00 | 0.00 | 0.00 | 83 | 1015.2 |
| 20260510130939 | 60 | 268 | 3.0 | 3.0 | 0.00 | 0.00 | 0.00 | 84 | 1015.4 |
| 20260510130435 | 60 | 260 | 6.0 | 7.0 | 0.00 | 0.00 | 0.00 | 84 | 1015.4 |
| 20260510125932 | 60 | 253 | 5.0 | 7.0 | 0.00 | 0.00 | 0.00 | 84 | 1015.2 |
| 20260510125428 | 61 | 298 | 8.0 | 10.0 | 0.00 | 0.00 | 0.00 | 84 | 1015.1 |
| 20260510124925 | 60 | 316 | 6.0 | 8.0 | 0.00 | 0.00 | 0.00 | 84 | 1015.1 |
| 20260510124421 | 60 | 316 | 8.0 | 9.0 | 0.00 | 0.00 | 0.00 | 84 | 1015.4 |
| 20260510123918 | 60 | 304 | 5.0 | 9.0 | 0.00 | 0.00 | 0.00 | 84 | 1015.3 |
| 20260510123414 | 60 | 332 | 9.0 | 11.0 | 0.00 | 0.00 | 0.00 | 85 | 1015.0 |
| 20260510122910 | 60 | 320 | 3.0 | 6.0 | 0.00 | 0.00 | 0.00 | 86 | 1015.0 |
| 20260510122405 | 60 | 347 | 4.0 | 5.0 | 0.00 | 0.00 | 0.00 | 86 | 1015.0 |
| 20260510121902 | 59 | 254 | 3.0 | 3.0 | 0.00 | 0.00 | 0.00 | 86 | 1015.0 |
| 20260510121359 | 59 | 53 | 2.0 | 3.0 | 0.00 | 0.00 | 0.00 | 87 | 1014.9 |
| 20260510120856 | 58 | 261 | 2.0 | 2.0 | 0.00 | 0.00 | 0.00 | 88 | 1014.8 |
| 20260510120354 | 58 | 321 | 1.0 | 1.0 | 0.00 | 0.00 | 0.00 | 88 | 1014.9 |
| 20260510115849 | 57 | 258 | 1.0 | 2.0 | 0.00 | 0.00 | 0.00 | 89 | 1014.8 |
| 20260510115346 | 57 | 270 | 0.0 | 1.0 | 0.00 | 0.00 | 0.00 | 90 | 1014.7 |
| 20260510114842 | 57 | 232 | 1.0 | 1.0 | 0.00 | 0.00 | 0.00 | 90 | 1014.9 |
| 20260510114340 | 56 | 257 | 2.0 | 2.0 | 0.00 | 0.00 | 0.00 | 91 | 1014.9 |
| 20260510113839 | 56 | 260 | 0.0 | 0.0 | 0.00 | 0.00 | 0.00 | 92 | 1014.7 |
| 20260510113336 | 55 | 249 | 1.0 | 2.0 | 0.00 | 0.00 | 0.00 | 92 | 1014.5 |
| 20260510112833 | 55 | 253 | 1.0 | 1.0 | 0.00 | 0.00 | 0.00 | 93 | 1014.5 |
| 20260510112330 | 54 | 250 | 0.0 | 1.0 | 0.00 | 0.00 | 0.00 | 95 | 1014.5 |
| 20260510111826 | 54 | 223 | 0.0 | 0.0 | 0.00 | 0.00 | 0.00 | 95 | 1014.4 |
| 20260510111323 | 53 | 236 | 0.0 | 0.0 | 0.00 | 0.00 | 0.00 | 96 | 1014.4 |
| 20260510110822 | 53 | 214 | 0.0 | 0.0 | 0.00 | 0.00 | 0.00 | 97 | 1014.5 |
| 20260510110320 | 52 | 315 | 0.0 | 0.0 | 0.00 | 0.00 | 0.00 | 98 | 1014.4 |
| 20260510105816 | 51 | 250 | 0.0 | 0.0 | 0.00 | 0.00 | 0.00 | 99 | 1014.4 |
| 20260510105310 | 51 | 249 | 0.0 | 0.0 | 0.00 | 0.00 | 0.00 | 99 | 1014.2 |
| 20260510104807 | 50 | 259 | 0.0 | 0.0 | 0.00 | 0.00 | 0.00 | 99 | 1014.3 |
| 20260510104305 | 51 | 247 | 0.0 | 0.0 | 0.00 | 0.00 | 0.00 | 99 | 1014.2 |
| 20260510103801 | 50 | 255 | 0.0 | 0.0 | 0.00 | 0.00 | 0.00 | 99 | 1013.9 |
| 20260510103257 | 51 | 252 | 0.0 | 0.0 | 0.00 | 0.00 | 0.00 | 98 | 1013.7 |
| 20260510102752 | 50 | 237 | 0.0 | 0.0 | 0.00 | 0.00 | 0.00 | 98 | 1013.7 |
| 20260510102248 | 51 | 257 | 0.0 | 0.0 | 0.00 | 0.00 | 0.00 | 98 | 1013.7 |
| 20260510101746 | 51 | 248 | 0.0 | 0.0 | 0.00 | 0.00 | 0.00 | 98 | 1013.9 |
| 20260510101244 | 51 | 253 | 0.0 | 0.0 | 0.00 | 0.00 | 0.00 | 97 | 1013.6 |
| 20260510100739 | 51 | 254 | 0.0 | 0.0 | 0.00 | 0.00 | 0.00 | 96 | 1013.7 |
| 20260510100238 | 52 | 246 | 0.0 | 0.0 | 0.00 | 0.00 | 0.00 | 96 | 1013.5 |
| 20260510095733 | 52 | 256 | 0.0 | 1.0 | 0.00 | 0.00 | 0.00 | 96 | 1013.4 |
| 20260510095228 | 52 | 253 | 0.0 | 0.0 | 0.00 | 0.00 | 0.00 | 95 | 1013.5 |
| 20260510094727 | 52 | 245 | 0.0 | 0.0 | 0.00 | 0.00 | 0.00 | 95 | 1013.4 |
| 20260510094223 | 52 | 235 | 0.0 | 0.0 | 0.00 | 0.00 | 0.00 | 94 | 1013.3 |
| 20260510093719 | 53 | 255 | 0.0 | 0.0 | 0.00 | 0.00 | 0.00 | 93 | 1013.4 |
| 20260510093217 | 53 | 217 | 0.0 | 0.0 | 0.00 | 0.00 | 0.00 | 93 | 1013.5 |
| 20260510092713 | 54 | 237 | 0.0 | 0.0 | 0.00 | 0.00 | 0.00 | 92 | 1013.1 |
| 20260510092208 | 55 | 257 | 1.0 | 1.0 | 0.00 | 0.00 | 0.00 | 90 | 1013.4 |
| 20260510091704 | 56 | 248 | 0.0 | 0.0 | 0.00 | 0.00 | 0.00 | 90 | 1013.2 |
| 20260510091201 | 56 | 244 | 0.0 | 0.0 | 0.00 | 0.00 | 0.00 | 89 | 1013.2 |
| 20260510090658 | 57 | 239 | 0.0 | 0.0 | 0.00 | 0.00 | 0.00 | 88 | 1013.3 |
| 20260510090154 | 57 | 208 | 0.0 | 1.0 | 0.00 | 0.00 | 0.00 | 88 | 1013.1 |
| 20260510085649 | 57 | 251 | 0.0 | 0.0 | 0.00 | 0.00 | 0.00 | 88 | 1013.2 |
| 20260510085144 | 57 | 266 | 1.0 | 1.0 | 0.00 | 0.00 | 0.00 | 88 | 1013.4 |
| 20260510084641 | 57 | 253 | 1.0 | 1.0 | 0.00 | 0.00 | 0.00 | 88 | 1013.1 |
| 20260510084138 | 57 | 269 | 2.0 | 3.0 | 0.00 | 0.00 | 0.00 | 88 | 1012.8 |
| 20260510083635 | 57 | 265 | 3.0 | 3.0 | 0.00 | 0.00 | 0.00 | 88 | 1013.2 |
| 20260510083132 | 56 | 339 | 4.0 | 6.0 | 0.00 | 0.00 | 0.00 | 89 | 1013.1 |
| 20260510082628 | 57 | 270 | 5.0 | 6.0 | 0.00 | 0.00 | 0.00 | 88 | 1013.0 |
| 20260510082123 | 57 | 277 | 3.0 | 5.0 | 0.00 | 0.00 | 0.00 | 88 | 1012.9 |
| 20260510081618 | 57 | 292 | 5.0 | 6.0 | 0.00 | 0.00 | 0.00 | 87 | 1012.9 |
| 20260510081114 | 57 | 276 | 2.0 | 3.0 | 0.00 | 0.00 | 0.00 | 86 | 1012.9 |
| 20260510080613 | 57 | 314 | 7.0 | 9.0 | 0.00 | 0.00 | 0.00 | 88 | 1013.0 |
| 20260510080111 | 57 | 274 | 4.0 | 5.0 | 0.00 | 0.00 | 0.00 | 87 | 1012.8 |
| 20260510075608 | 57 | 326 | 10.0 | 13.0 | 0.00 | 0.00 | 0.00 | 88 | 1012.7 |
| 20260510075105 | 56 | 258 | 2.0 | 2.0 | 0.00 | 0.00 | 0.00 | 89 | 1012.8 |
| 20260510074602 | 55 | 274 | 5.0 | 6.0 | 0.00 | 0.00 | 0.00 | 91 | 1012.7 |
| 20260510074057 | 54 | 256 | 2.0 | 3.0 | 0.00 | 0.00 | 0.00 | 93 | 1012.4 |
| 20260510073554 | 53 | 258 | 0.0 | 0.0 | 0.00 | 0.00 | 0.00 | 95 | 1012.8 |
| 20260510073051 | 52 | 260 | 0.0 | 0.0 | 0.00 | 0.00 | 0.00 | 97 | 1012.4 |
| 20260510072547 | 51 | 257 | 0.0 | 0.0 | 0.00 | 0.00 | 0.00 | 98 | 1012.4 |
| 20260510072043 | 50 | 239 | 0.0 | 0.0 | 0.00 | 0.00 | 0.00 | 98 | 1012.4 |
| 20260510071539 | 51 | 248 | 0.0 | 0.0 | 0.00 | 0.00 | 0.00 | 97 | 1012.6 |
| 20260510071038 | 51 | 227 | 0.0 | 0.0 | 0.00 | 0.00 | 0.00 | 98 | 1012.5 |
| 20260510070534 | 51 | 232 | 0.0 | 0.0 | 0.00 | 0.00 | 0.00 | 98 | 1012.5 |
| 20260510070031 | 51 | 231 | 0.0 | 0.0 | 0.00 | 0.00 | 0.00 | 98 | 1012.6 |
| 20260510065527 | 50 | 223 | 0.0 | 0.0 | 0.00 | 0.00 | 0.00 | 98 | 1012.8 |
| 20260510065023 | 51 | 239 | 0.0 | 0.0 | 0.00 | 0.00 | 0.00 | 98 | 1012.5 |
| 20260510064520 | 51 | 237 | 0.0 | 0.0 | 0.00 | 0.00 | 0.00 | 98 | 1012.6 |
| 20260510064017 | 50 | 231 | 0.0 | 0.0 | 0.00 | 0.00 | 0.00 | 97 | 1012.7 |
| 20260510063514 | 50 | 238 | 0.0 | 0.0 | 0.00 | 0.00 | 0.00 | 97 | 1012.6 |
| 20260510063011 | 51 | 237 | 0.0 | 0.0 | 0.00 | 0.00 | 0.00 | 97 | 1012.8 |
| 20260510062506 | 51 | 235 | 0.0 | 0.0 | 0.00 | 0.00 | 0.00 | 97 | 1012.9 |
| 20260510062002 | 51 | 224 | 0.0 | 0.0 | 0.00 | 0.00 | 0.00 | 97 | 1012.8 |
| 20260510061459 | 51 | 249 | 0.0 | 0.0 | 0.00 | 0.00 | 0.00 | 96 | 1013.0 |
| 20260510060955 | 51 | 249 | 0.0 | 0.0 | 0.00 | 0.00 | 0.00 | 96 | 1013.0 |
| 20260510060452 | 51 | 260 | 1.0 | 2.0 | 0.00 | 0.00 | 0.00 | 96 | 1013.1 |
| 20260510055948 | 51 | 238 | 0.0 | 0.0 | 0.00 | 0.00 | 0.00 | 96 | 1013.1 |
| 20260510055444 | 51 | 230 | 0.0 | 0.0 | 0.00 | 0.00 | 0.00 | 96 | 1013.2 |
| 20260510054942 | 51 | 250 | 0.0 | 0.0 | 0.00 | 0.00 | 0.00 | 96 | 1013.3 |
| 20260510054437 | 51 | 215 | 1.0 | 1.0 | 0.00 | 0.00 | 0.00 | 96 | 1013.6 |
| 20260510053932 | 51 | 249 | 0.0 | 0.0 | 0.00 | 0.00 | 0.00 | 96 | 1013.7 |
| 20260510053428 | 51 | 252 | 0.0 | 0.0 | 0.00 | 0.00 | 0.00 | 96 | 1013.6 |
| 20260510052925 | 51 | 256 | 0.0 | 0.0 | 0.00 | 0.00 | 0.00 | 96 | 1013.6 |
| 20260510052420 | 51 | 220 | 0.0 | 1.0 | 0.00 | 0.00 | 0.00 | 96 | 1013.5 |
| 20260510051917 | 51 | 235 | 0.0 | 0.0 | 0.00 | 0.00 | 0.00 | 97 | 1013.7 |
| 20260510051414 | 50 | 197 | 1.0 | 1.0 | 0.00 | 0.00 | 0.00 | 98 | 1013.4 |
| 20260510050910 | 50 | 253 | 1.0 | 1.0 | 0.00 | 0.00 | 0.00 | 98 | 1013.7 |
| 20260510050407 | 49 | 241 | 0.0 | 0.0 | 0.00 | 0.00 | 0.00 | 98 | 1013.6 |
| 20260510045904 | 49 | 274 | 1.0 | 1.0 | 0.00 | 0.00 | 0.00 | 99 | 1013.7 |
| 20260510045401 | 48 | 265 | 1.0 | 2.0 | 0.00 | 0.00 | 0.00 | 99 | 1013.4 |
| 20260510044858 | 46 | 260 | 1.0 | 1.0 | 0.00 | 0.00 | 0.00 | 99 | 1013.1 |
| 20260510044355 | 46 | 234 | 0.0 | 0.0 | 0.00 | 0.00 | 0.00 | 99 | 1013.2 |
| 20260510043851 | 46 | 234 | 0.0 | 0.0 | 0.00 | 0.00 | 0.00 | 99 | 1013.2 |
| 20260510043347 | 46 | 233 | 0.0 | 0.0 | 0.00 | 0.00 | 0.00 | 99 | 1012.9 |
| 20260510042845 | 46 | 233 | 0.0 | 0.0 | 0.00 | 0.00 | 0.00 | 99 | 1013.0 |
| 20260510042341 | 46 | 232 | 0.0 | 0.0 | 0.00 | 0.00 | 0.00 | 99 | 1012.9 |
| 20260510041837 | 46 | 232 | 0.0 | 0.0 | 0.00 | 0.00 | 0.00 | 99 | 1012.9 |
| 20260510041335 | 46 | 232 | 0.0 | 0.0 | 0.00 | 0.00 | 0.00 | 99 | 1012.8 |
| 20260510040832 | 46 | 232 | 0.0 | 0.0 | 0.00 | 0.00 | 0.00 | 98 | 1012.8 |
| 20260510040328 | 47 | 232 | 0.0 | 0.0 | 0.00 | 0.00 | 0.00 | 98 | 1012.8 |
| 20260510035824 | 47 | 232 | 0.0 | 0.0 | 0.00 | 0.04 | 0.04 | 98 | 1012.8 |
| 20260510035320 | 46 | 232 | 0.0 | 0.0 | 0.00 | 0.04 | 0.04 | 98 | 1012.6 |
| 20260510034816 | 46 | 232 | 0.0 | 0.0 | 0.00 | 0.04 | 0.04 | 98 | 1012.7 |
| 20260510034314 | 47 | 232 | 0.0 | 0.0 | 0.00 | 0.04 | 0.04 | 98 | 1012.7 |
| 20260510033810 | 47 | 232 | 0.0 | 0.0 | 0.00 | 0.04 | 0.04 | 97 | 1012.5 |
| 20260510033307 | 46 | 232 | 0.0 | 0.0 | 0.00 | 0.04 | 0.04 | 97 | 1012.5 |
| 20260510032804 | 47 | 232 | 0.0 | 0.0 | 0.00 | 0.04 | 0.04 | 97 | 1012.6 |
| 20260510032300 | 48 | 232 | 0.0 | 0.0 | 0.00 | 0.04 | 0.04 | 96 | 1012.5 |
| 20260510031756 | 47 | 232 | 0.0 | 0.0 | 0.00 | 0.04 | 0.04 | 96 | 1012.7 |
| 20260510031251 | 47 | 232 | 0.0 | 0.0 | 0.00 | 0.04 | 0.04 | 96 | 1012.5 |
| 20260510030745 | 48 | 232 | 0.0 | 0.0 | 0.00 | 0.04 | 0.04 | 95 | 1012.4 |
| 20260510030243 | 48 | 233 | 0.0 | 0.0 | 0.00 | 0.04 | 0.04 | 95 | 1012.5 |
| 20260510025740 | 48 | 233 | 0.0 | 0.0 | 0.00 | 0.04 | 0.04 | 95 | 1012.4 |
| 20260510025238 | 49 | 223 | 0.0 | 0.0 | 0.00 | 0.04 | 0.04 | 94 | 1012.4 |
| 20260510024734 | 49 | 233 | 0.0 | 0.0 | 0.00 | 0.04 | 0.04 | 93 | 1012.5 |
| 20260510024231 | 50 | 232 | 0.0 | 0.0 | 0.00 | 0.04 | 0.04 | 93 | 1012.4 |
| 20260510023726 | 50 | 214 | 0.0 | 1.0 | 0.00 | 0.04 | 0.04 | 92 | 1012.4 |
| 20260510023224 | 50 | 215 | 1.0 | 1.0 | 0.00 | 0.04 | 0.04 | 92 | 1012.4 |
| 20260510022720 | 50 | 232 | 0.0 | 0.0 | 0.00 | 0.04 | 0.04 | 91 | 1012.1 |
| 20260510022220 | 51 | 229 | 0.0 | 0.0 | 0.00 | 0.04 | 0.04 | 91 | 1012.1 |
| 20260510021715 | 51 | 195 | 1.0 | 1.0 | 0.00 | 0.04 | 0.04 | 90 | 1012.5 |
| 20260510021213 | 51 | 216 | 1.0 | 1.0 | 0.00 | 0.04 | 0.04 | 89 | 1012.1 |
| 20260510020708 | 52 | 224 | 0.0 | 0.0 | 0.00 | 0.04 | 0.04 | 88 | 1012.6 |
| 20260510020203 | 52 | 224 | 0.0 | 0.0 | 0.00 | 0.04 | 0.04 | 87 | 1012.3 |
| 20260510015659 | 53 | 223 | 0.0 | 0.0 | 0.00 | 0.04 | 0.04 | 86 | 1012.1 |
| 20260510015155 | 53 | 224 | 0.0 | 0.0 | 0.00 | 0.04 | 0.04 | 86 | 1012.3 |
| 20260510014650 | 54 | 215 | 0.0 | 1.0 | 0.00 | 0.04 | 0.04 | 84 | 1012.0 |
| 20260510014148 | 55 | 235 | 0.0 | 0.0 | 0.00 | 0.04 | 0.04 | 83 | 1012.0 |
| 20260510013643 | 55 | 235 | 0.0 | 0.0 | 0.00 | 0.04 | 0.04 | 82 | 1012.0 |
| 20260510013139 | 56 | 236 | 0.0 | 0.0 | 0.00 | 0.04 | 0.04 | 80 | 1011.6 |
| 20260510012638 | 57 | 230 | 0.0 | 0.0 | 0.00 | 0.04 | 0.04 | 79 | 1011.8 |
| 20260510012135 | 57 | 213 | 1.0 | 1.0 | 0.00 | 0.04 | 0.04 | 78 | 1011.9 |
| 20260510011635 | 57 | 240 | 0.0 | 0.0 | 0.00 | 0.04 | 0.04 | 77 | 1011.7 |
| 20260510011131 | 57 | 233 | 0.0 | 1.0 | 0.00 | 0.04 | 0.04 | 77 | 1011.6 |
| 20260510010627 | 58 | 250 | 0.0 | 0.0 | 0.00 | 0.04 | 0.04 | 76 | 1011.6 |
| 20260510010124 | 58 | 264 | 1.0 | 1.0 | 0.00 | 0.04 | 0.04 | 76 | 1011.4 |
| 20260510005619 | 58 | 265 | 1.0 | 2.0 | 0.00 | 0.04 | 0.04 | 75 | 1011.4 |
| 20260510005117 | 58 | 256 | 2.0 | 2.0 | 0.00 | 0.04 | 0.04 | 75 | 1011.2 |
| 20260510004615 | 59 | 259 | 2.0 | 3.0 | 0.00 | 0.04 | 0.04 | 74 | 1011.2 |
| 20260510004113 | 59 | 268 | 3.0 | 3.0 | 0.00 | 0.04 | 0.04 | 74 | 1011.0 |
| 20260510003610 | 59 | 261 | 2.0 | 2.0 | 0.00 | 0.04 | 0.04 | 74 | 1011.2 |
| 20260510003106 | 59 | 267 | 2.0 | 2.0 | 0.00 | 0.04 | 0.04 | 74 | 1011.1 |
| 20260510002600 | 59 | 265 | 2.0 | 2.0 | 0.00 | 0.04 | 0.04 | 74 | 1010.8 |
| 20260510002057 | 59 | 277 | 4.0 | 5.0 | 0.00 | 0.04 | 0.04 | 74 | 1011.0 |
| 20260510001555 | 59 | 261 | 2.0 | 2.0 | 0.00 | 0.04 | 0.04 | 74 | 1010.7 |
| 20260510001054 | 60 | 249 | 2.0 | 2.0 | 0.00 | 0.04 | 0.04 | 73 | 1010.6 |
| 20260510000548 | 60 | 265 | 2.0 | 3.0 | 0.00 | 0.04 | 0.04 | 72 | 1010.6 |
| 20260510000046 | 60 | 279 | 4.0 | 5.0 | 0.00 | 0.04 | 0.04 | 72 | 1010.8 |
| 20260509235542 | 61 | 261 | 3.0 | 3.0 | 0.00 | 0.04 | 0.04 | 70 | 1010.6 |
| 20260509235038 | 62 | 267 | 4.0 | 6.0 | 0.00 | 0.04 | 0.04 | 70 | 1010.5 |
| 20260509234534 | 62 | 279 | 4.0 | 5.0 | 0.00 | 0.04 | 0.04 | 70 | 1010.6 |
| 20260509234033 | 62 | 38 | 5.0 | 8.0 | 0.00 | 0.04 | 0.04 | 68 | 1010.5 |
| 20260509233530 | 63 | 271 | 1.0 | 2.0 | 0.00 | 0.04 | 0.04 | 68 | 1010.5 |
| 20260509233027 | 63 | 262 | 4.0 | 5.0 | 0.00 | 0.04 | 0.04 | 68 | 1010.6 |
| 20260509232524 | 63 | 242 | 3.0 | 5.0 | 0.00 | 0.04 | 0.04 | 68 | 1010.6 |
| 20260509232020 | 63 | 260 | 2.0 | 2.0 | 0.00 | 0.04 | 0.04 | 68 | 1010.5 |
| 20260509231517 | 63 | 358 | 6.0 | 7.0 | 0.00 | 0.04 | 0.04 | 69 | 1010.3 |
| 20260509231015 | 64 | 241 | 4.0 | 5.0 | 0.00 | 0.04 | 0.04 | 68 | 1010.1 |
| 20260509230511 | 63 | 251 | 2.0 | 2.0 | 0.00 | 0.04 | 0.04 | 69 | 1010.5 |
| 20260509230008 | 62 | 338 | 7.0 | 8.0 | 0.00 | 0.04 | 0.04 | 69 | 1010.6 |
| 20260509225503 | 61 | 3 | 6.0 | 7.0 | 0.00 | 0.04 | 0.04 | 71 | 1010.3 |
| 20260509224959 | 62 | 267 | 6.0 | 7.0 | 0.00 | 0.04 | 0.04 | 69 | 1010.5 |
| 20260509224455 | 62 | 260 | 4.0 | 6.0 | 0.00 | 0.04 | 0.04 | 70 | 1010.5 |
| 20260509223952 | 62 | 355 | 3.0 | 3.0 | 0.00 | 0.04 | 0.04 | 70 | 1010.5 |
| 20260509223449 | 63 | 306 | 4.0 | 6.0 | 0.00 | 0.04 | 0.04 | 67 | 1010.6 |
| 20260509222946 | 64 | 287 | 3.0 | 3.0 | 0.00 | 0.04 | 0.04 | 67 | 1010.3 |
| 20260509222442 | 64 | 310 | 5.0 | 7.0 | 0.00 | 0.04 | 0.04 | 66 | 1010.6 |
| 20260509221938 | 64 | 283 | 9.0 | 11.0 | 0.00 | 0.04 | 0.04 | 68 | 1010.7 |
| 20260509221434 | 64 | 345 | 6.0 | 8.0 | 0.00 | 0.04 | 0.04 | 68 | 1010.7 |
| 20260509220930 | 64 | 307 | 4.0 | 5.0 | 0.00 | 0.04 | 0.04 | 68 | 1010.7 |
| 20260509220426 | 64 | 261 | 4.0 | 6.0 | 0.00 | 0.04 | 0.04 | 66 | 1010.7 |
| 20260509215923 | 63 | 299 | 7.0 | 8.0 | 0.00 | 0.04 | 0.04 | 69 | 1010.8 |
| 20260509215418 | 62 | 276 | 5.0 | 7.0 | 0.00 | 0.04 | 0.04 | 69 | 1010.6 |
| 20260509214916 | 62 | 263 | 4.0 | 5.0 | 0.00 | 0.04 | 0.04 | 70 | 1010.5 |
| 20260509214413 | 63 | 319 | 6.0 | 8.0 | 0.00 | 0.04 | 0.04 | 70 | 1010.6 |
| 20260509213910 | 62 | 272 | 5.0 | 7.0 | 0.00 | 0.04 | 0.04 | 70 | 1010.6 |
| 20260509213405 | 63 | 24 | 4.0 | 6.0 | 0.00 | 0.04 | 0.04 | 68 | 1010.5 |
| 20260509212903 | 64 | 277 | 5.0 | 7.0 | 0.00 | 0.04 | 0.04 | 66 | 1010.6 |
| 20260509212400 | 63 | 286 | 4.0 | 6.0 | 0.00 | 0.04 | 0.04 | 70 | 1010.5 |
| 20260509211856 | 62 | 330 | 3.0 | 3.0 | 0.00 | 0.04 | 0.04 | 69 | 1010.6 |
| 20260509211352 | 63 | 234 | 4.0 | 5.0 | 0.00 | 0.04 | 0.04 | 68 | 1010.7 |
| 20260509210849 | 62 | 272 | 2.0 | 6.0 | 0.00 | 0.04 | 0.04 | 67 | 1010.6 |
| 20260509210346 | 62 | 262 | 3.0 | 3.0 | 0.00 | 0.04 | 0.04 | 68 | 1010.7 |
| 20260509205846 | 62 | 281 | 6.0 | 8.0 | 0.00 | 0.04 | 0.04 | 69 | 1010.6 |
| 20260509205341 | 63 | 304 | 7.0 | 10.0 | 0.00 | 0.04 | 0.04 | 71 | 1010.8 |
| 20260509204838 | 62 | 300 | 7.0 | 7.0 | 0.00 | 0.04 | 0.04 | 70 | 1010.6 |
| 20260509204334 | 62 | 312 | 7.0 | 10.0 | 0.00 | 0.04 | 0.04 | 68 | 1010.6 |
| 20260509203830 | 62 | 330 | 3.0 | 5.0 | 0.00 | 0.04 | 0.04 | 68 | 1010.8 |
| 20260509203327 | 62 | 275 | 6.0 | 7.0 | 0.00 | 0.04 | 0.04 | 69 | 1011.1 |
| 20260509202823 | 62 | 265 | 6.0 | 8.0 | 0.00 | 0.04 | 0.04 | 68 | 1010.9 |
| 20260509202320 | 64 | 305 | 7.0 | 8.0 | 0.00 | 0.04 | 0.04 | 67 | 1010.8 |
| 20260509201819 | 62 | 285 | 6.0 | 7.0 | 0.00 | 0.04 | 0.04 | 69 | 1010.8 |
| 20260509201316 | 62 | 343 | 12.0 | 15.0 | 0.00 | 0.04 | 0.04 | 70 | 1010.9 |
| 20260509200812 | 61 | 255 | 4.0 | 7.0 | 0.00 | 0.04 | 0.04 | 70 | 1010.8 |
| 20260509200308 | 61 | 335 | 10.0 | 11.0 | 0.00 | 0.04 | 0.04 | 71 | 1010.9 |
| 20260509195804 | 61 | 335 | 6.0 | 8.0 | 0.00 | 0.04 | 0.04 | 70 | 1010.9 |
| 20260509195300 | 62 | 252 | 4.0 | 5.0 | 0.00 | 0.04 | 0.04 | 71 | 1010.8 |
| 20260509194759 | 62 | 308 | 5.0 | 7.0 | 0.00 | 0.04 | 0.04 | 71 | 1010.9 |
| 20260509194255 | 61 | 261 | 3.0 | 3.0 | 0.00 | 0.04 | 0.04 | 71 | 1011.1 |
| 20260509193753 | 62 | 322 | 3.0 | 3.0 | 0.00 | 0.04 | 0.04 | 69 | 1010.9 |
| 20260509193253 | 61 | 257 | 3.0 | 3.0 | 0.00 | 0.04 | 0.04 | 69 | 1011.0 |
| 20260509192749 | 61 | 267 | 3.0 | 3.0 | 0.00 | 0.04 | 0.04 | 69 | 1010.9 |
| 20260509192244 | 60 | 261 | 3.0 | 3.0 | 0.00 | 0.04 | 0.04 | 72 | 1011.2 |
| 20260509191739 | 60 | 293 | 4.0 | 7.0 | 0.00 | 0.04 | 0.04 | 74 | 1011.2 |
| 20260509191236 | 60 | 266 | 1.0 | 2.0 | 0.00 | 0.04 | 0.04 | 74 | 1011.0 |
| 20260509190732 | 60 | 267 | 4.0 | 6.0 | 0.00 | 0.04 | 0.04 | 74 | 1011.3 |
| 20260509190229 | 60 | 266 | 3.0 | 5.0 | 0.00 | 0.04 | 0.04 | 75 | 1010.8 |
| 20260509185727 | 59 | 265 | 3.0 | 5.0 | 0.00 | 0.04 | 0.04 | 73 | 1011.3 |
| 20260509185223 | 60 | 249 | 2.0 | 2.0 | 0.00 | 0.04 | 0.04 | 73 | 1011.1 |
| 20260509184721 | 59 | 313 | 4.0 | 5.0 | 0.00 | 0.04 | 0.04 | 73 | 1011.1 |
| 20260509184218 | 60 | 252 | 1.0 | 2.0 | 0.00 | 0.04 | 0.04 | 73 | 1011.3 |
| 20260509183714 | 60 | 243 | 1.0 | 1.0 | 0.00 | 0.04 | 0.04 | 74 | 1011.2 |
| 20260509183209 | 59 | 210 | 0.0 | 0.0 | 0.00 | 0.04 | 0.04 | 74 | 1011.2 |
| 20260509182705 | 59 | 255 | 1.0 | 2.0 | 0.00 | 0.04 | 0.04 | 74 | 1011.2 |
| 20260509182203 | 59 | 276 | 3.0 | 3.0 | 0.00 | 0.04 | 0.04 | 75 | 1011.3 |
| 20260509181700 | 59 | 257 | 3.0 | 3.0 | 0.00 | 0.04 | 0.04 | 77 | 1011.2 |
| 20260509181158 | 58 | 305 | 3.0 | 3.0 | 0.00 | 0.04 | 0.04 | 77 | 1011.5 |
| 20260509180654 | 58 | 236 | 1.0 | 2.0 | 0.00 | 0.04 | 0.04 | 77 | 1011.2 |
| 20260509180150 | 58 | 256 | 2.0 | 2.0 | 0.00 | 0.04 | 0.04 | 78 | 1011.1 |
| 20260509175646 | 57 | 258 | 0.0 | 1.0 | 0.00 | 0.04 | 0.04 | 77 | 1011.2 |
| 20260509175144 | 57 | 258 | 1.0 | 2.0 | 0.00 | 0.04 | 0.04 | 78 | 1011.4 |
| 20260509174639 | 57 | 265 | 1.0 | 1.0 | 0.00 | 0.04 | 0.04 | 78 | 1011.5 |
| 20260509174134 | 57 | 317 | 5.0 | 7.0 | 0.00 | 0.04 | 0.04 | 79 | 1011.7 |
| 20260509173630 | 57 | 286 | 3.0 | 3.0 | 0.00 | 0.04 | 0.04 | 80 | 1011.4 |
| 20260509173126 | 56 | 314 | 3.0 | 5.0 | 0.00 | 0.04 | 0.04 | 81 | 1011.3 |
| 20260509172623 | 57 | 298 | 4.0 | 5.0 | 0.00 | 0.04 | 0.04 | 84 | 1011.4 |
| 20260509172119 | 57 | 167 | 1.0 | 1.0 | 0.00 | 0.04 | 0.04 | 84 | 1011.6 |
| 20260509171615 | 57 | 251 | 2.0 | 2.0 | 0.00 | 0.04 | 0.04 | 84 | 1011.6 |
| 20260509171111 | 57 | 186 | 1.0 | 2.0 | 0.00 | 0.04 | 0.04 | 84 | 1011.6 |
| 20260509170608 | 57 | 292 | 4.0 | 5.0 | 0.00 | 0.04 | 0.04 | 85 | 1011.7 |
| 20260509170104 | 57 | 246 | 0.0 | 0.0 | 0.00 | 0.04 | 0.04 | 88 | 1011.6 |
| 20260509165602 | 55 | 198 | 0.0 | 0.0 | 0.00 | 0.04 | 0.04 | 88 | 1011.5 |
| 20260509165058 | 55 | 256 | 0.0 | 1.0 | 0.00 | 0.04 | 0.04 | 89 | 1011.7 |
| 20260509164554 | 55 | 258 | 0.0 | 1.0 | 0.00 | 0.04 | 0.04 | 88 | 1011.7 |
| 20260509164050 | 55 | 203 | 1.0 | 2.0 | 0.00 | 0.04 | 0.04 | 89 | 1011.6 |
| 20260509163548 | 55 | 229 | 1.0 | 2.0 | 0.00 | 0.04 | 0.04 | 88 | 1011.7 |
| 20260509163044 | 56 | 201 | 0.0 | 1.0 | 0.00 | 0.04 | 0.04 | 90 | 1011.8 |
| 20260509162541 | 55 | 249 | 1.0 | 1.0 | 0.00 | 0.04 | 0.04 | 88 | 1011.9 |
| 20260509162036 | 56 | 228 | 0.0 | 1.0 | 0.00 | 0.04 | 0.04 | 90 | 1012.0 |
| 20260509161533 | 55 | 253 | 3.0 | 3.0 | 0.00 | 0.04 | 0.04 | 91 | 1012.1 |
| 20260509161028 | 54 | 248 | 2.0 | 2.0 | 0.00 | 0.04 | 0.04 | 92 | 1011.9 |
| 20260509160524 | 54 | 251 | 1.0 | 1.0 | 0.00 | 0.04 | 0.04 | 93 | 1012.3 |
| 20260509160020 | 53 | 263 | 1.0 | 1.0 | 0.00 | 0.04 | 0.04 | 93 | 1011.9 |
| 20260509155516 | 53 | 251 | 0.0 | 0.0 | 0.00 | 0.04 | 0.04 | 94 | 1012.1 |
| 20260509155012 | 53 | 252 | 0.0 | 0.0 | 0.00 | 0.04 | 0.04 | 94 | 1012.4 |